This demonstration page uses our WeatherBlox Daily Observations layout. Learn more.

Left ArrowRight Arrow

39.95238, -75.16362

Hourly Observations for April 18, 2022

Temp ( °F °C ) Dew Point ( °F °C ) Humidity (%) Winds ( mph kmh ) Pressure ( in mb ) Visibility ( mi km ) Precip ( " mm )
12:54 am 00:54 Mostly Clear 37 2.8 21 -6.1 52 52 NE 5 7 30.35 1028 10 16 0.00 0.00
1:54 am 01:54 Mostly Clear 36 2.2 20 -6.7 52 52 N 5 7 30.35 1028 10 16 0.00 0.00
2:54 am 02:54 Mostly Clear 37 2.8 22 -5.6 54 54 N 5 7 30.36 1028 10 16 0.00 0.00
3:54 am 03:54 Clear 35 1.7 23 -5 61 61 N 5 7 30.36 1028 10 16 0.00 0.00
4:54 am 04:54 Partly Cloudy 34 1.1 23 -5 64 64 NE 5 7 30.34 1028 10 16 0.00 0.00
5:54 am 05:54 Partly Cloudy 32 0 22 -5.6 66 66 NE 6 9 30.32 1027 10 16 0.00 0.00
6:54 am 06:54 Partly Cloudy 35 1.7 22 -5.6 59 59 ENE 6 9 30.32 1027 10 16 0.00 0.00
7:54 am 07:54 Mostly Cloudy 40 4.4 26 -3.3 58 58 ENE 6 9 30.33 1027 10 16 0.00 0.00
8:54 am 08:54 Mostly Cloudy 45 7.2 26 -3.3 48 48 E 10 17 30.33 1027 10 16 0.00 0.00
9:54 am 09:54 Cloudy 45 7.2 26 -3.3 48 48 E 14 22 30.33 1027 10 16 0.00 0.00
10:54 am 10:54 Cloudy 48 8.9 28 -2.2 46 46 ESE 12 19 30.31 1026 10 16 0.00 0.00
11:54 am 11:54 Cloudy 49 9.4 28 -2.2 44 44 SE 15 24 30.29 1026 10 16 0.00 0.00
12:42 pm 12:42 Cloudy with Light Rain 50 10 28 -2.2 43 43 SE 17 28 30.29 1026 10 16 0.00 0.00
12:54 pm 12:54 Cloudy with Light Rain 48 8.9 28 -2.2 46 46 SE 15 24 30.28 1025 10 16 0.00 0.00
1:54 pm 13:54 Cloudy 47 8.3 29 -1.7 50 50 SE 12 19 30.26 1025 10 16 0.00 0.00
2:54 pm 14:54 Cloudy 48 8.9 33 0.6 56 56 E 13 20 30.22 1024 10 16 0.00 0.00
3:54 pm 15:54 Cloudy 48 8.9 34 1.1 58 58 E 15 24 30.16 1021 10 16 0.00 0.00
4:15 pm 16:15 Cloudy with Light Rain 48 8.9 34 1.1 58 58 E 15 24 30.15 1021 10 16 0.00 0.00
4:43 pm 16:43 Cloudy with Light Rain 46 7.8 36 2.2 68 68 E 16 26 30.14 1021 7 11 0.00 0.00
4:55 pm 16:55 Cloudy with Light Rain 46 7.8 36 2.2 68 68 E 15 24 30.13 1020 7 11 0.00 0.00
5:54 pm 17:54 Cloudy with Light Rain 45 7.2 37 2.8 74 74 E 13 20 30.08 1019 7 11 0.00 0.00
6:54 pm 18:54 Cloudy with Light Rain 44 6.7 38 3.3 79 79 E 14 22 30.04 1017 7 11 0.00 0.00
7:12 pm 19:12 Cloudy with Light Rain 44 6.7 38 3.3 79 79 E 14 22 30.03 1017 5 8 0.00 0.00
7:27 pm 19:27 Cloudy with Light Rain 44 6.7 38 3.3 79 79 ENE 14 22 30.03 1017 4 6 0.00 0.00
7:54 pm 19:54 Cloudy with Light Rain 44 6.7 39 3.9 83 83 ENE 15 24 29.97 1015 4 6 0.00 0.00
8:27 pm 20:27 Cloudy with Light Rain 44 6.7 39 3.9 83 83 ENE 15 24 29.95 1014 4 6 0.00 0.00
8:54 pm 20:54 Cloudy with Light Rain 44 6.7 40 4.4 85 85 ENE 16 26 29.93 1014 4 6 0.00 0.00
9:54 pm 21:54 Cloudy with Light Rain 44 6.7 40 4.4 85 85 NE 22 35 29.83 1010 3 5 0.00 0.00
10:06 pm 22:06 Cloudy with Light Rain 44 6.7 40 4.4 85 85 NE 23 37 29.81 1010 3 5 0.00 0.00
10:38 pm 22:38 Cloudy with Light Rain 44 6.7 40 4.4 85 85 NE 21 33 29.78 1009 4 6 0.00 0.00
10:54 pm 22:54 Cloudy with Light Rain 44 6.7 41 5 89 89 NE 22 35 29.76 1008 3 5 0.00 0.00
11:03 pm 23:03 Cloudy with Light Rain 44 6.7 41 5 89 89 NE 22 35 29.75 1008 2 2 0.00 0.00
11:25 pm 23:25 Cloudy with Light Rain 44 6.7 41 5 89 89 NNE 18 30 29.75 1008 3 5 0.00 0.00
11:35 pm 23:35 Cloudy with Light Rain 44 6.7 41 5 89 89 NNE 18 30 29.75 1008 2 2 0.00 0.00
11:54 pm 23:54 Cloudy with Light Rain 44 6.7 41 5 89 89 NNE 16 26 29.72 1007 2 2 0.00 0.00

Powered by AerisWeather